Pagrindinis puslapis
METAR-TAF:

METAR-TAF

Oro uostai :

Vilhelmina, Švedija

platuma: 64-34-44N, ilguma: 016-50-00E, Aukštis: 347 m

Dabartinis oras

Ataskaita buvo paskelbta 47 minutes, ne 01:20 UTC
Vėjas 5 kt iš Rytų
Temperatūra -8°C
Drėgmė 79%
Slėgis 1013 hPa
Matomumas 10 km arba daugiau

METAR: ESNV 190120Z AUTO 09005KT 9999 NCD M08/M11 Q1013

Laikas: 04:07 (02:07 UTC)


TAF: trūkstamas

Orai ataskaitas ir orų prognozės (METAR, TAF).

turimą stotys yra geltonos ir raudonos taškus žemėlapyje.

Perkelti pele per norėdami pamatyti stoties vardą.

Tada spustelėkite, norėdami matyti oro stebėjimo ir prognozės.

Norėdami pakeisti žemėlapį: spustelėkite ant žalios mygtukų su juodo kryžiaus žemyn,; žalią mygtuką su brūkšneliu, jei norite nutolinti; arba žalių rodyklių gretimoms žemėlapius.


METAR-TAF: